Humidity-temperature Sensor

Selected Measurement Type: Air Temperature

 
Air Temperature [°C]     6 entries per hour
Showing data from 10/8/2015 (00:00:00 Z) to 10/7/2015 (00:01:00 Z)
Previous Next [ Day | 3-Days | 7-Days ]
First Last
Prev [ Day | 3-Days | 7-Days ] Next
First Last

Start Time:     :
End Time:     :     
Time (in GMT) :00 :50 :40 :30 :20 :10
Previous Next [ Day | 3-Days | 7-Days ]
First Last
Prev [ Day | 3-Days | 7-Days ] Next
First Last


123 => good data
MM => data is determined as missing
-- => data not received/configured
Back to Top Back to Top
10/8/2015 00:00 to 23:10 27.85 28.25 28.65 28.78 28.57 28.66
10/7/2015 23:00 to 22:10 28.67 28.49 28.50 28.65 28.47 28.58
10/7/2015 22:00 to 21:10 28.55 28.59 28.43 28.41 28.52 28.54
10/7/2015 21:00 to 20:10 28.46 28.57 28.46 28.44 28.55 28.59
10/7/2015 20:00 to 19:10 28.60 28.58 28.58 28.60 28.64 28.60
10/7/2015 19:00 to 18:10 28.67 28.54 28.56 28.45 28.53 28.50
10/7/2015 18:00 to 17:10 28.52 28.38 28.40 28.41 28.37 28.20
10/7/2015 17:00 to 16:10 28.30 28.36 28.36 28.48 28.63 28.53
10/7/2015 16:00 to 15:10 28.25 28.40 28.30 28.16 28.12 28.13
10/7/2015 15:00 to 14:10 28.11 28.20 28.13 28.16 27.99 28.13
10/7/2015 14:00 to 13:10 28.06 28.10 28.11 28.00 28.03 28.17
10/7/2015 13:00 to 12:10 28.05 28.04 27.98 27.43 26.80 27.21
10/7/2015 12:00 to 11:10 28.15 28.14 27.90 28.27 27.97 27.91
10/7/2015 11:00 to 10:10 27.91 28.06 28.12 27.99 28.23 27.99
10/7/2015 10:00 to 9:10 28.06 28.09 28.05 27.99 28.12 28.23
10/7/2015 09:00 to 8:10 28.24 28.21 28.18 28.16 28.28 28.37
10/7/2015 08:00 to 7:10 28.31 28.49 28.28 28.36 28.29 28.24
10/7/2015 07:00 to 6:10 28.34 28.39 28.36 28.38 28.21 28.56
10/7/2015 06:00 to 5:10 28.50 28.40 28.42 28.34 28.47 28.51
10/7/2015 05:00 to 4:10 28.39 28.31 28.30 28.29 28.26 28.42
10/7/2015 04:00 to 3:10 28.33 28.40 28.30 28.46 28.38 28.40
10/7/2015 03:00 to 2:10 28.27 28.15 28.61 28.43 28.30 28.62
10/7/2015 02:00 to 1:10 28.38 28.54 28.73 28.70 28.64 28.70
10/7/2015 01:00 to 0:10 28.70 28.56 28.62 28.53 28.72 28.71